Time,TemperatureF,DewpointF,PressureIn,WindDirection,WindDirectionDegrees,WindSpeedMPH,WindSpeedGustMPH,Humidity,HourlyPrecipIn,Conditions,Clouds,dailyrainin,SoftwareType,DateUTC
2013-04-12 06:41:00,30.0,29.0,-100.00,North,350,4.0,4.0,95,-99.99,,,-99.99,,2013-04-12 12:41:00,
2013-04-12 07:12:00,30.0,29.0,-100.00,North,350,4.0,4.0,95,-99.99,,,-99.99,,2013-04-12 13:12:00,
2013-04-12 07:22:00,30.0,29.0,-100.00,North,350,4.0,4.0,95,-99.99,,,-99.99,,2013-04-12 13:22:00,
2013-04-12 07:32:00,30.0,29.0,-100.00,North,350,4.0,4.0,95,-99.99,,,-99.99,,2013-04-12 13:32:00,
2013-04-12 07:53:00,29.0,26.0,-100.00,NNE,30,12.0,14.0,92,-99.99,,,0.00,,2013-04-12 13:53:00,
2013-04-12 08:03:00,29.0,26.0,-100.00,NNE,30,12.0,14.0,92,-99.99,,,0.00,,2013-04-12 14:03:00,
2013-04-12 08:12:00,29.0,26.0,-100.00,NNE,30,12.0,14.0,92,-99.99,,,0.00,,2013-04-12 14:12:00,
2013-04-12 08:22:00,29.0,26.0,-100.00,NNE,30,12.0,14.0,92,-99.99,,,0.00,,2013-04-12 14:22:00,
2013-04-12 09:53:00,30.0,26.0,-100.00,NNE,25,4.0,6.0,86,-99.99,,,-99.99,,2013-04-12 15:53:00,
2013-04-12 10:03:00,30.0,26.0,-100.00,NNE,25,4.0,6.0,86,-99.99,,,-99.99,,2013-04-12 16:03:00,
2013-04-12 10:13:00,30.0,26.0,-100.00,NNE,25,4.0,6.0,86,-99.99,,,-99.99,,2013-04-12 16:13:00,
2013-04-12 10:22:00,30.0,26.0,-100.00,NNE,25,4.0,6.0,86,-99.99,,,-99.99,,2013-04-12 16:22:00,
2013-04-12 10:53:00,33.0,25.0,-100.00,East,80,3.0,3.0,72,-99.99,,,-99.99,,2013-04-12 16:53:00,
2013-04-12 11:03:00,33.0,25.0,-100.00,East,80,3.0,3.0,72,-99.99,,,-99.99,,2013-04-12 17:03:00,
2013-04-12 11:12:00,33.0,25.0,-100.00,East,80,3.0,3.0,72,-99.99,,,-99.99,,2013-04-12 17:12:00,
2013-04-12 11:22:00,33.0,25.0,-100.00,East,80,3.0,3.0,72,-99.99,,,-99.99,,2013-04-12 17:22:00,
2013-04-12 11:23:00,34.0,24.0,-100.00,South,175,5.0,6.0,66,-99.99,,,-99.99,,2013-04-12 17:23:00,
2013-04-12 12:03:00,34.0,24.0,-100.00,South,175,5.0,6.0,66,-99.99,,,-99.99,,2013-04-12 18:03:00,
2013-04-12 12:14:00,34.0,24.0,-100.00,South,175,5.0,6.0,66,-99.99,,,-99.99,,2013-04-12 18:14:00,
2013-04-12 12:23:00,42.0,23.0,-100.00,SSW,195,4.0,7.0,47,-99.99,,,-99.99,,2013-04-12 18:23:00,
2013-04-12 13:53:00,46.0,23.0,-100.00,North,-999,0.0,0.0,40,-99.99,,,-99.99,,2013-04-12 19:53:00,
2013-04-12 14:02:00,46.0,23.0,-100.00,North,-999,0.0,0.0,40,-99.99,,,-99.99,,2013-04-12 20:02:00,
2013-04-12 14:12:00,46.0,23.0,-100.00,North,-999,0.0,0.0,40,-99.99,,,-99.99,,2013-04-12 20:12:00,
2013-04-12 14:22:00,46.0,23.0,-100.00,North,-999,0.0,0.0,40,-99.99,,,-99.99,,2013-04-12 20:22:00,
2013-04-12 14:52:00,46.0,22.0,-100.00,SE,145,6.0,9.0,38,-99.99,,,-99.99,,2013-04-12 20:52:00,
2013-04-12 15:02:00,46.0,22.0,-100.00,SE,145,6.0,9.0,38,-99.99,,,-99.99,,2013-04-12 21:02:00,
2013-04-12 15:11:00,46.0,22.0,-100.00,SE,145,6.0,9.0,38,-99.99,,,-99.99,,2013-04-12 21:11:00,
2013-04-12 15:21:00,46.0,22.0,-100.00,SE,145,6.0,9.0,38,-99.99,,,-99.99,,2013-04-12 21:21:00,
2013-04-12 15:53:00,50.0,22.0,-100.00,SSE,160,6.0,10.0,33,-99.99,,,-99.99,,2013-04-12 21:53:00,
2013-04-12 16:02:00,50.0,22.0,-100.00,SSE,160,6.0,10.0,33,-99.99,,,-99.99,,2013-04-12 22:02:00,
2013-04-12 16:12:00,50.0,22.0,-100.00,SSE,160,6.0,10.0,33,-99.99,,,-99.99,,2013-04-12 22:12:00,
2013-04-12 16:22:00,50.0,22.0,-100.00,SSE,160,6.0,10.0,33,-99.99,,,-99.99,,2013-04-12 22:22:00,
2013-04-12 16:52:00,48.0,15.0,-100.00,SW,230,12.0,15.0,26,-99.99,,,-99.99,,2013-04-12 22:52:00,
2013-04-12 17:03:00,48.0,15.0,-100.00,SW,230,12.0,15.0,26,-99.99,,,-99.99,,2013-04-12 23:03:00,
2013-04-12 17:12:00,48.0,15.0,-100.00,SW,230,12.0,15.0,26,-99.99,,,-99.99,,2013-04-12 23:12:00,
2013-04-12 17:22:00,48.0,15.0,-100.00,SW,230,12.0,15.0,26,-99.99,,,-99.99,,2013-04-12 23:22:00,
2013-04-12 17:52:00,48.0,17.0,-100.00,South,190,6.0,8.0,28,-99.99,,,-99.99,,2013-04-12 23:52:00,
2013-04-12 18:02:00,48.0,17.0,-100.00,South,190,6.0,8.0,28,-99.99,,,-99.99,,2013-04-13 00:02:00,
2013-04-12 18:12:00,48.0,17.0,-100.00,South,190,6.0,8.0,28,-99.99,,,-99.99,,2013-04-13 00:12:00,
2013-04-12 18:22:00,48.0,17.0,-100.00,South,190,6.0,8.0,28,-99.99,,,-99.99,,2013-04-13 00:22:00,
2013-04-12 18:52:00,47.0,16.0,-100.00,SE,135,11.0,12.0,28,-99.99,,,-99.99,,2013-04-13 00:52:00,
2013-04-12 19:02:00,47.0,16.0,-100.00,SE,135,11.0,12.0,28,-99.99,,,-99.99,,2013-04-13 01:02:00,
2013-04-12 19:12:00,47.0,16.0,-100.00,SE,135,11.0,12.0,28,-99.99,,,-99.99,,2013-04-13 01:12:00,
2013-04-12 19:22:00,47.0,16.0,-100.00,SE,135,11.0,12.0,28,-99.99,,,-99.99,,2013-04-13 01:22:00,
2013-04-12 19:52:00,46.0,17.0,-100.00,SE,135,9.0,9.0,30,-99.99,,,-99.99,,2013-04-13 01:52:00,
2013-04-12 20:02:00,46.0,17.0,-100.00,SE,135,9.0,9.0,30,-99.99,,,-99.99,,2013-04-13 02:02:00,
2013-04-12 20:12:00,46.0,17.0,-100.00,SE,135,9.0,9.0,30,-99.99,,,-99.99,,2013-04-13 02:12:00,
2013-04-12 20:22:00,46.0,17.0,-100.00,SE,135,9.0,9.0,30,-99.99,,,-99.99,,2013-04-13 02:22:00,
2013-04-12 20:53:00,43.0,18.0,-100.00,SSE,155,10.0,11.0,37,-99.99,,,-99.99,,2013-04-13 02:53:00,
2013-04-12 21:02:00,43.0,18.0,-100.00,SSE,155,10.0,11.0,37,-99.99,,,-99.99,,2013-04-13 03:02:00,
2013-04-12 21:12:00,43.0,18.0,-100.00,SSE,155,10.0,11.0,37,-99.99,,,-99.99,,2013-04-13 03:12:00,
2013-04-12 21:22:00,43.0,18.0,-100.00,SSE,155,10.0,11.0,37,-99.99,,,-99.99,,2013-04-13 03:22:00,
2013-04-12 21:53:00,44.0,19.0,-100.00,South,180,15.0,17.0,36,-99.99,,,-99.99,,2013-04-13 03:53:00,
2013-04-12 22:02:00,44.0,19.0,-100.00,South,180,15.0,17.0,36,-99.99,,,-99.99,,2013-04-13 04:02:00,
2013-04-12 22:12:00,44.0,19.0,-100.00,South,180,15.0,17.0,36,-99.99,,,-99.99,,2013-04-13 04:12:00,
2013-04-12 22:22:00,44.0,19.0,-100.00,South,180,15.0,17.0,36,-99.99,,,-99.99,,2013-04-13 04:22:00,
2013-04-12 22:53:00,47.0,18.0,-100.00,WSW,250,17.0,21.0,31,-99.99,,,-99.99,,2013-04-13 04:53:00,
2013-04-12 23:02:00,47.0,18.0,-100.00,WSW,250,17.0,21.0,31,-99.99,,,-99.99,,2013-04-13 05:02:00,
2013-04-12 23:12:00,47.0,18.0,-100.00,WSW,250,17.0,21.0,31,-99.99,,,-99.99,,2013-04-13 05:12:00,
2013-04-12 23:22:00,47.0,18.0,-100.00,WSW,250,17.0,21.0,31,-99.99,,,-99.99,,2013-04-13 05:22:00,
2013-04-12 23:23:00,44.0,19.0,-100.00,WSW,245,9.0,12.0,37,-99.99,,,-99.99,,2013-04-13 05:23:00,
2013-04-12 23:52:00,44.0,19.0,-100.00,WSW,245,9.0,12.0,37,-99.99,,,-99.99,,2013-04-13 05:52:00,